Regional Weather Roundup
Issued by NWS Cleveland, OH

Home | Current Version | Previous Version | Text Only | Print | Product List | Glossary Off
Versions: 1 2 3 4 5 6 7 8 9 10 11 12 13 14 15 16 17 18 19 20 21 22 23 24 25 26 27 28 29 30 31 32 33 34 35 36 37 38 39 40 41 42 43 44 45 46 47 48 49 50

846
ASUS41 KCLE 181710
RWRCLE
OHIO REGIONAL WEATHER ROUNDUP
NATIONAL WEATHER SERVICE CLEVELAND, OH
100 PM EDT WED OCT 18 2017

NOTE: "FAIR" INDICATES FEW OR NO CLOUDS BELOW 12,000 FEET WITH NO
SIGNIFICANT WEATHER AND/OR OBSTRUCTIONS TO VISIBILITY.

OHZ001>008-015>018-024>027-034-035-043-044-181800-
   NORTHWEST OHIO

CITY           SKY/WX    TMP DP  RH WIND       PRES   REMARKS
DEFIANCE       SUNNY     65  42  43 S15       30.24F
FINDLAY        SUNNY     67  42  40 SW16      30.26F
TOLEDO EXPRESS SUNNY     66  45  46 SW14      30.24F
TOLEDO EXEC    SUNNY     66  43  43 SW15      30.26F
LIMA           SUNNY     64  43  46 SW12      30.27F
$$

OHZ009>014-019>023-028>033-038-089-181800-
   NORTHEAST OHIO

CITY           SKY/WX    TMP DP  RH WIND       PRES   REMARKS
CLE-HOPKINS    SUNNY     67  43  41 S9        30.30F
CLE-LAKEFRONT  SUNNY     67  41  38 S15       30.27F
CUY CO. ARPT   SUNNY     66  43  42 S13       30.30F
LORAIN-ELYRIA  SUNNY     66  39  37 S13       30.29F
ASHTABULA      SUNNY     65  41  41 SW14      30.30F
AKRON-CANTON   SUNNY     65  42  43 SW9       30.31F
WOOSTER        SUNNY     65  42  43 SW10      30.31F
MANSFIELD      SUNNY     66  41  40 S12       30.30F
YOUNGSTOWN     SUNNY     66  43  43 S9        30.31F
$$

OHZ042-051>053-060>062-070>072-077>081-181800-
  SOUTHWEST OHIO

CITY           SKY/WX    TMP DP  RH WIND       PRES   REMARKS
CINC-COVINGTON MOSUNNY   65  45  48 S7        30.31F
CINC-LUNKEN    SUNNY     66  47  50 S10       30.32F
HAMILTON       SUNNY     67  43  41 S8        30.31F
DAYTON         MOSUNNY   64  45  49 S12       30.30F
WRIGHT-PAT AFB SUNNY     65  41  40 S8        30.30F
DAYTON GENERAL SUNNY     64  43  46 S13       30.30F
WILMINGTON     SUNNY     65  45  48 SW13      30.30F
$$

OHZ036-037-039>041-045>050-054>059-063>069-073>076-082>088-181800-
  CENTRAL AND SOUTHEAST OHIO

CITY           SKY/WX    TMP DP  RH WIND       PRES   REMARKS
COLUMBUS       SUNNY     65  43  44 S10       30.31F
OSU AIRPORT    SUNNY     64  45  49 SW6       30.31F
BOLTON FIELD   SUNNY     64  43  45 S9        30.33S
RICKENBACK AFB SUNNY     64  42  45 SW8       30.31F
NEWARK         SUNNY     66  40  38 S5        30.31F
MARION         SUNNY     65  41  41 S14       30.30F
LANCASTER      SUNNY     65  45  48 SE9       30.32F
ZANESVILLE     SUNNY     64  42  44 CALM      30.33F
NEW PHILLY     NOT AVBL
$$




USA.gov is the U.S. government's official web portal to all federal, state and local government web resources and services.